THORAD DELTA 1 DEB, 19183

Orbit data source: Space-Track

THORAD DELTA 1 DEB, 19183 is space debris in LEO originally from a launch on Fri, 15 Nov 1974 UTC launched from the Air Force Western Test Range (AFWTR). Debris objects in space refer to the collection of defunct objects orbiting the Earth. Examples of debris include non-operational satellites, rocket bodies, and fragments generated from explosions, collisions, or faulty payload assembly.

Loading next visibility...
Identifier
19183, 1974-089FD
Orbit
LEO
Country
Flag of USUS
Related business
Manufacturer
Unknown
Mission
Spacecraft
Bus & Motor
Unknown
Mass
Unknown
Launch date (UTC)
1974-11-15 (51 years ago)
Launch vehicle
Unknown
Launch site
Air Force Western Test Range (AFWTR)
Object type
Payload
Rocket body
Debris
Shape & HBR
Unknown shape, 0.1 m
Radar Cross Section
Small (<0.1 m²)

Expand to show TLE details & history
Last TLE update: 1 day ago

TLE from 1 day ago
0 THORAD DELTA 1 DEB
1 19183U 74089FD  25285.83904797  .00001918  00000-0  39816-2 0  9997
2 19183 103.5222  49.8949 0185492  65.9279  83.6154 13.28052102747884
Epoch: 2025-10-12T20:08Z
TLE epoch observation values (Epoch: 2025-10-12T20:08:13.744Z)
Latitude
27.52889°
Longitude
-86.64903°
Altitude
1,144.231 km
Speed
7.29 km/s
True Right ascension
15h 48m 14s
True Declination
27° 23' 44"
Sunlit
Object was in daylight at epoch
Visualization orbit readout
Latitude
Unknown
Longitude
Unknown
Altitude
Unknown
Speed
Unknown
Apparent Right ascension
Unknown
Apparent Declination
Unknown
Sunlit
N/A
Visualization observer readout
Local Sidereal Time
18:24:26
Azimuth
Unknown
Elevation
Unknown
Doppler factor
Unknown
Orbital elements
Apogee altitude
1,291.351 km
Perigee altitude
1,012.007 km
Semi-major axis
7,529.816 km
Eccentricity
0.01855
Inclination
103.5222°
RAAN
49.8949°
Arg. of periapsis
65.9279°
True anomaly
85.73278°
Mean anomaly
83.6154°
Eccentric anomaly
84.6736°
Mean motion
3.32175 °/min
Orbital period
108.38 mins
BSTAR
0.0039816
Loading maneuver chart data...
Computing Atmospheric mass density...

Documentation

Showing up to 5 results
|